2024/01/25 00:00:00,56.7,-5.6
2024/01/25 00:10:00,56.8,-5.7
2024/01/25 00:20:00,57.3,-5.8
2024/01/25 00:30:00,57.9,-5.6
2024/01/25 00:40:00,59.2,-5.8
2024/01/25 00:50:00,59.7,-5.8
2024/01/25 01:00:00,60.6,-5.6
2024/01/25 01:10:00,61.5,-5.8
2024/01/25 01:20:00,62.4,-5.9
2024/01/25 01:30:00,63.0,-5.6
2024/01/25 01:40:00,63.3,-5.8
2024/01/25 01:50:00,63.8,-5.5
2024/01/25 02:00:00,64.5,-5.8
2024/01/25 02:10:00,64.5,-5.7
2024/01/25 02:20:00,64.3,-5.8
2024/01/25 02:30:00,65.0,-5.9
2024/01/25 02:40:00,65.8,-6.1
2024/01/25 02:50:00,65.7,-5.9
2024/01/25 03:00:00,65.5,-6.2
2024/01/25 03:10:00,65.5,-5.9
2024/01/25 03:20:00,65.3,-5.8
2024/01/25 03:30:00,65.0,-6.0
2024/01/25 03:40:00,65.1,-5.9
2024/01/25 03:50:00,65.6,-5.8
2024/01/25 04:00:00,66.1,-5.7
2024/01/25 04:10:00,67.1,-5.8
2024/01/25 04:20:00,68.2,-5.8
2024/01/25 04:30:00,68.8,-5.9
2024/01/25 04:40:00,69.0,-5.6
2024/01/25 04:50:00,69.6,-5.6
2024/01/25 05:00:00,69.2,-5.6
2024/01/25 05:10:00,69.5,-5.6
2024/01/25 05:20:00,69.4,-5.7
2024/01/25 05:30:00,69.5,-5.5
2024/01/25 05:40:00,69.7,-5.6
2024/01/25 05:50:00,69.9,-5.9
2024/01/25 06:00:00,70.4,-5.6
2024/01/25 06:10:00,71.1,-5.8
2024/01/25 06:20:00,71.4,-5.5
2024/01/25 06:30:00,71.9,-5.6
2024/01/25 06:40:00,72.3,-5.4
2024/01/25 06:50:00,72.6,-5.4
2024/01/25 07:00:00,73.3,-5.7
2024/01/25 07:10:00,74.2,-5.6
2024/01/25 07:20:00,74.4,-5.4
2024/01/25 07:30:00,74.9,-5.5
2024/01/25 07:40:00,75.4,-5.2
2024/01/25 07:50:00,75.8,-5.5
2024/01/25 08:00:00,75.4,-4.9
2024/01/25 08:10:00,75.4,-5.0
2024/01/25 08:20:00,75.1,-4.9
2024/01/25 08:30:00,75.1,-4.8
2024/01/25 08:40:00,75.3,-4.5
2024/01/25 08:50:00,75.5,-4.3
2024/01/25 09:00:00,75.6,-4.2
2024/01/25 09:10:00,75.6,-4.5
2024/01/25 09:20:00,76.0,-4.5
2024/01/25 09:30:00,76.4,-3.9
2024/01/25 09:40:00,76.5,-4.4
2024/01/25 09:50:00,76.9,-3.4
2024/01/25 10:00:00,76.9,-3.3
2024/01/25 10:10:00,76.5,-3.8
2024/01/25 10:20:00,77.0,-3.8
2024/01/25 10:30:00,77.8,-3.8
2024/01/25 10:40:00,78.1,-3.9
2024/01/25 10:50:00,79.0,-3.5
2024/01/25 11:00:00,79.6,-3.4
2024/01/25 11:10:00,79.4,-2.7
2024/01/25 11:20:00,79.8,-2.6
2024/01/25 11:30:00,80.4,-2.8
2024/01/25 11:40:00,80.9,-2.6
2024/01/25 11:50:00,81.1,-3.1
2024/01/25 12:00:00,81.3,-2.4
2024/01/25 12:10:00,80.8,-2.3
2024/01/25 12:20:00,81.2,-3.0
2024/01/25 12:30:00,82.2,-2.1
2024/01/25 12:40:00,82.4,-1.5
2024/01/25 12:50:00,82.1,-1.2
2024/01/25 13:00:00,81.6,-2.1
2024/01/25 13:10:00,82.1,-2.7
2024/01/25 13:20:00,83.0,-2.4
2024/01/25 13:30:00,83.3,-2.1
2024/01/25 13:40:00,83.3,-2.0
2024/01/25 13:50:00,83.2,-1.8
2024/01/25 14:00:00,82.7,-2.2
2024/01/25 14:10:00,82.8,-2.3
2024/01/25 14:20:00,83.8,-2.2
2024/01/25 14:30:00,84.0,-2.1
2024/01/25 14:40:00,84.0,-2.3
2024/01/25 14:50:00,84.7,-3.2
2024/01/25 15:00:00,85.5,-3.1
2024/01/25 15:10:00,86.0,-3.2
2024/01/25 15:20:00,86.7,-3.1
2024/01/25 15:30:00,86.9,-3.1
2024/01/25 15:40:00,86.7,-3.1
2024/01/25 15:50:00,86.6,-3.4
2024/01/25 16:00:00,86.6,-3.4
2024/01/25 16:10:00,86.7,-3.5
2024/01/25 16:20:00,87.5,-3.3
2024/01/25 16:30:00,87.5,-3.6
2024/01/25 16:40:00,88.0,-3.6
2024/01/25 16:50:00,88.2,-3.4
2024/01/25 17:00:00,88.4,-3.7
2024/01/25 17:10:00,88.1,-3.8
2024/01/25 17:20:00,87.8,-4.0
2024/01/25 17:30:00,88.1,-4.0
2024/01/25 17:40:00,88.7,-4.2
2024/01/25 17:50:00,89.0,-3.4
2024/01/25 18:00:00,88.9,-4.1
2024/01/25 18:10:00,88.8,-4.0
2024/01/25 18:20:00,89.2,-4.2
2024/01/25 18:30:00,89.6,-4.0
2024/01/25 18:40:00,89.7,-4.1
2024/01/25 18:50:00,89.5,-4.0
2024/01/25 19:00:00,89.5,-3.8
2024/01/25 19:10:00,89.5,-3.9
2024/01/25 19:20:00,89.5,-3.8
2024/01/25 19:30:00,89.3,-4.0
2024/01/25 19:40:00,89.4,-3.8
2024/01/25 19:50:00,89.4,-4.1
2024/01/25 20:00:00,89.3,-3.9
2024/01/25 20:10:00,89.5,-4.1
2024/01/25 20:20:00,89.6,-4.1
2024/01/25 20:30:00,90.1,-4.2
2024/01/25 20:40:00,90.2,-3.8
2024/01/25 20:50:00,90.1,-4.1
2024/01/25 21:00:00,90.0,-4.2
2024/01/25 21:10:00,90.0,-4.1
2024/01/25 21:20:00,90.2,-4.3
2024/01/25 21:30:00,90.2,-4.0
2024/01/25 21:40:00,90.2,-3.8
2024/01/25 21:50:00,90.3,-3.8
2024/01/25 22:00:00,90.4,-4.2
2024/01/25 22:10:00,90.4,-4.0
2024/01/25 22:20:00,90.4,-3.7
2024/01/25 22:30:00,90.5,-4.1
2024/01/25 22:40:00,91.3,-3.8
2024/01/25 22:50:00,91.7,-3.7
2024/01/25 23:00:00,91.8,-4.1
2024/01/25 23:10:00,92.3,-4.5
2024/01/25 23:20:00,92.9,-4.3
2024/01/25 23:30:00,92.9,-4.1
2024/01/25 23:40:00,93.2,-4.4
2024/01/25 23:50:00,93.1,-4.3
